Regional Weather Roundup
Issued by NWS Charleston, WV

Home | Current Version | Previous Version | Text Only | Print | Product List | Glossary Off
Versions: 1 2 3 4 5 6 7 8 9 10 11 12 13 14 15 16 17 18 19 20 21 22 23 24 25 26 27 28 29 30 31 32 33 34 35 36 37 38 39 40 41 42 43 44 45 46

000
ASUS41 KRLX 241710
RWRRLX
West Virginia Regional Weather Roundup
National Weather Service Charleston WV
100 PM EDT FRI MAR 24 2017

Note: "fair" indicates few or no clouds below 12,000 feet with no
significant weather and/or obstructions to visibility.

WVZ003-241800-
Northern Panhandle of West Virginia

CITY           SKY/WX    TMP DP  RH WIND       PRES   REMARKS
WHEELING       MOSUNNY   66  44  45 SW14G28   30.17F
$$

WVZ009-241800-
Northwest West Virginia

CITY           SKY/WX    TMP DP  RH WIND       PRES   REMARKS
PARKERSBURG    SUNNY     69  45  41 SW17G24   30.25F
$$

WVZ006-241800-
Western West Virginia

CITY           SKY/WX    TMP DP  RH WIND       PRES   REMARKS
HUNTINGTON     CLOUDY    69  46  43 SW6       30.27F
$$

WVZ015-241800-
West Central West Virginia

CITY           SKY/WX    TMP DP  RH WIND       PRES   REMARKS
CHARLESTON     PTSUNNY   72  47  40 W10G21    30.26F
$$

WVZ022-031-241800-
North Central West Virginia

CITY           SKY/WX    TMP DP  RH WIND       PRES   REMARKS
CLARKSBURG     MOSUNNY   68  46  45 SW13G23   30.24F
MORGANTOWN     PTSUNNY   66  43  43 SW9G24    30.22F
$$

WVZ025-035-042-045-241800-
Southern West Virginia

CITY           SKY/WX    TMP DP  RH WIND       PRES   REMARKS
BECKLEY        LGT RAIN  65  46  50 W16       30.32F
LOGAN          PTSUNNY   70  45  40 CALM      30.30F
BLUEFIELD      CLOUDY    63  43  48 SW12G18   30.36F
LEWISBURG      SUNNY     56  33  40 CALM      30.34F
$$

WVZ047-241800-
Northern Mountains of West Virginia

CITY           SKY/WX    TMP DP  RH WIND       PRES   REMARKS
ELKINS         CLOUDY    64  45  49 SW5       30.28F
$$

WVZ052-241800-
Eastern Panhandle of West Virginia

CITY           SKY/WX    TMP DP  RH WIND       PRES   REMARKS
MARTINSBURG    MOSUNNY   52  41  66 S8        30.26F
PETERSBURG     CLOUDY    63  38  40 E3        30.23F
$$




USA.gov is the U.S. government's official web portal to all federal, state and local government web resources and services.